weather.gov     
National Weather Service

Regional Weather Roundup
NWS Homepage
This page is being discontinued on March 12, 2014.
The same data is available at this site. Please update your bookmarks.
Thank you, and we apologize for the inconvenience.
Please send an email to SR-SRH.Webmaster@noaa.gov with any concerns.


Current Version
Previous Version:    01  02  03  04  05  06  07  08  09  10  11  12  13  14  15  16  17  18  19  20  21  22  23  24  25  26  27  28  29  30  
   31  32  33  34  35  36  37  38  39  40  41  42  43  44  45  46  47  48  49  50  
[Printable]
944
ASUS44 KFWD 262015
RWRTX
NORTH TEXAS HOURLY WEATHER ROUNDUP
NATIONAL WEATHER SERVICE FORT WORTH TX
200 PM CST WED NOV 26 2014

NOTE: "FAIR" INDICATES FEW OR NO CLOUDS BELOW 12,000 FEET WITH NO
SIGNIFICANT WEATHER AND/OR OBSTRUCTIONS TO VISIBILITY.

TXZ118-119-262100-
DALLAS/FORT WORTH METROPLEX

CITY           SKY/WX    TMP DP  RH WIND       PRES   REMARKS
DFW AIRPORT    MOSUNNY   63  32  31 N15       30.17R
DALLAS LOVE    MOSUNNY   65  33  30 N12       30.17R
FTW MEACHAM    SUNNY     65  35  33 N10G21    30.17R
DAL-EXECUTIVE  SUNNY     67  31  26 NW12      30.15S
FTW-ALLIANCE   MOSUNNY   63  34  33 N17       30.18R
FTW-SPINKS     SUNNY     66  34  30 N14G20    30.18R
ARLINGTON      SUNNY     67  30  25 N12       30.17R
ADDISON        SUNNY     63  30  29 NW14G21   30.19R
MESQUITE       SUNNY     64  30  27 N7        30.15F
LANCASTER      SUNNY     65  29  26 N7        30.17R
$$

TXZ091>094-102>105-117-120-121-131>134-262100-
NORTH CENTRAL TEXAS

CITY           SKY/WX    TMP DP  RH WIND       PRES   REMARKS
SHRMAN/DENISON SUNNY     62  38  39 NW13      30.18S
GAINESVILLE    SUNNY     60  33  36 NW12G20   30.20S
BOWIE          SUNNY     60  36  40 N15       30.19F
BRIDGEPORT     SUNNY     61  37  41 N10       30.22F
DECATUR        SUNNY     61  32  33 NW8       30.19S
DENTON         SUNNY     62  33  33 N14       30.18R
MCKINNEY       SUNNY     63  33  32 N13       30.16R
GREENVILLE     SUNNY     64  30  27 N9        30.15R
ROCKWALL       SUNNY     64  33  31 NW13      30.15R
TERRELL        SUNNY     68  31  25 N10       30.15S
WAXAHACHIE     SUNNY     65  34  32 N6        30.18R
CLEBURNE       SUNNY     64  32  29 N9        30.18S
GRANBURY       SUNNY     67  33  28 N10       30.19S
$$

TXZ083>090-098>101-113>116-127>130-139>142-154-155-262100-
WESTERN NORTH TEXAS

CITY           SKY/WX    TMP DP  RH WIND       PRES   REMARKS
WICHITA FALLS  MOSUNNY   59  35  40 N14       30.20F
WF-KICKAPOO    SUNNY     59  32  35 N10G24    30.22S
VERNON         SUNNY     61  30  31 N10       30.23F
ABILENE        SUNNY     60  33  36 N14G20    30.22F
ABILENE-DYESS  SUNNY     58  34  40 N10       30.22F
BRECKENRIDGE   SUNNY     61  32  34 N10       30.22S HAZE
GRAHAM         SUNNY     59  38  45 NW8       30.21S
MINERAL WELLS  SUNNY     62  34  35 N13       30.19R
STEPHENVILLE   SUNNY     64  31  28 N13       30.21S
COMANCHE       SUNNY     63  33  31 N12G17    30.19F
BROWNWOOD      SUNNY     63  28  27 N13       30.20S
COLEMAN        SUNNY     62  37  39 N13       30.20F
BRADY          SUNNY     64  28  25 W10       30.20S
$$

TXZ143>147-156>162-174-175-262100-
CENTRAL TEXAS

CITY           SKY/WX    TMP DP  RH WIND       PRES   REMARKS
WACO           SUNNY     69  28  21 N10       30.15F
WACO-TSTC      SUNNY     68  27  21 NW6       30.16S
WACO-MCGREGOR  SUNNY     68  30  24 N9        30.17S
HILLSBORO      SUNNY     66  29  24 N10       30.16S
CORSICANA      SUNNY     67  28  23 NW9       30.16S
MEXIA          SUNNY     65  30  26 NW7       30.14F
HEARNE         SUNNY     71  36  27 W9        30.16F
CAMERON        SUNNY     73  33  23 W10G16    30.15S
TEMPLE         SUNNY     70  28  21 N6        30.16R
KILLEEN        SUNNY     67  26  21 NW12      30.17S
KILLEEN-SKYLRK SUNNY     70  28  21 NW10      30.15S
FORT HOOD      SUNNY     72  27  18 NW8       30.17R
GATESVILLE     SUNNY     66  30  26 CALM      30.19S
HAMILTON       SUNNY     66  27  23 NW7       30.18S
LAMPASAS       SUNNY     66  30  26 NW9       30.18R
$$

TXZ095>097-106>112-122>126-135>138-148>153-164>167-262100-
EAST TEXAS

CITY           SKY/WX    TMP DP  RH WIND       PRES   REMARKS
PARIS          SUNNY     61  28  29 N16G25    30.15R
SULPHUR SPRNGS SUNNY     63  32  32 N12       30.16R
MOUNT PLEASANT SUNNY     65  31  27 NW9G16    30.14R
MINEOLA        SUNNY     64  27  24 NW10      30.14F
TYLER          SUNNY     66  29  24 VRB6      30.13S
LONGVIEW       SUNNY     66  29  24 W8G18     30.12R
MARSHALL       SUNNY     68  31  24 W8        30.13S
ATHENS         SUNNY     63  30  29 W6        30.14S
PALESTINE      SUNNY     66  32  27 W13       30.16S
JACKSONVILLE   SUNNY     66  29  24 W7        30.15S
HENDERSON      SUNNY     66  31  27 W10       30.14S
NACOGDOCHES    SUNNY     68  36  30 SW10G17   30.14R
LUFKIN         SUNNY     72  34  24 W10G21    30.14S
$$

SUPPLEMENTAL OBSERVATIONS (CENTRAL)

CITY           SKY/WX    TMP DP  RH WIND       PRES   REMARKS
LAKE TEXOMA      N/A     59  32  36 N8          N/A
CADDO GRASSLND   N/A     63  30  29 N6G18       N/A
PAT MAYSE LAKE   N/A     61  28  29 NW15        N/A
GREENVILLE       N/A     63  32  31 N13         N/A
CEDAR HILL       N/A     66  32  28 N6          N/A
ATHENS           N/A     66  30  26 W3          N/A
PALESTINE        N/A     70  32  24 NW6         N/A
LAKE LIMESTONE   N/A     70  30  23 W7          N/A
MCGREGOR         N/A     70  30  23 NW2G14      N/A
TEMPLE           N/A     72  30  21 NW5G13      N/A
$$

SUPPLEMENTAL OBSERVATIONS (WEST)

CITY           SKY/WX    TMP DP  RH WIND       PRES   REMARKS
MILLERS CREEK    N/A     57  39  51 VRB9        N/A
POSSUM KINGDOM   N/A     61  32  33 N10         N/A
LBJ GRASSLAND    N/A     63  34  34 NW9         N/A
GRANBURY         N/A     66  32  28 N12         N/A
HAMBY            N/A     61  36  39 N10         N/A
$$

SUPPLEMENTAL OBSERVATIONS (EAST)

CITY           SKY/WX    TMP DP  RH WIND       PRES   REMARKS
CLARKSVILLE      N/A     61  30  31 NW14G22     N/A
TEXARKANA        N/A     64  32  29 NW12G20     N/A
LINDEN           N/A     66  30  26 NW8G17      N/A
CADDO LAKE       N/A     68  32  26 W7          N/A
GILMER           N/A     66  32  28 NW5G14      N/A
HENDERSON        N/A     66  28  24 W13         N/A
LUFKIN           N/A     72  34  25 MISG        N/A
N SABINE NF      N/A     70  34  26 MISG        N/A
S SABINE NF      N/A     72  37  28 SW6G16      N/A
$$

SUPPLEMENTAL OBSERVATIONS ARE A COLLECTION OF AUTOMATED INSTRUMENTS
THAT ARE MAINTAINED BY A VARIETY OF FEDERAL AND STATE AGENCIES.
CERTAIN ELEMENTS...SUCH AS HUMIDITY VALUES AND SUSTAINED WIND
SPEEDS...MAY BE APPROXIMATED.





U.S. Dept. of Commerce
NOAA National Weather Service
1325 East West Highway
Silver Spring, MD 20910
E-mail: w-nws.webmaster@noaa.gov
Page last modified: May 16, 2007
NATIONAL WEATHER SERVICE: for Safety, for Work, for Fun - FOR LIFE